Meath Environmental Platform

Observations for Trim Market St

Time AQI Temp °C Hum % Pres Pa CO μg/m³ H₂S μg/m³ NO μg/m³ NO₂ μg/m³ O₃ μg/m³ SO₂ μg/m³ PM1 μg/m³ PM2.5 μg/m³ PM10 μg/m³
Monday 13 July 2026
18:24 1 24.7 43 64,386 0 2.06 0 7.42 30.25 0 2.85 5.38 5.95
18:23 1 24.7 43 64,325 0 4.93 0 10.02 30.75 0 1.43 4.33 5.95
18:21 1 24.7 43 64,260 0 3.92 0 8.82 31.6 0 1.43 4.86 5.16
18:20 1 24.7 43 64,260 0 6.1 0 11.63 33.23 0 2.85 6.43 7.53
18:19 1 24.8 43 64,262 0 7.03 0 10.92 38.27 0 2.14 4.34 5.16
18:18 1 24.8 43 64,305 0 5.86 0 10.23 35.69 0 1.43 4.35 4.37
18:17 1 24.8 42 64,352 0 4.77 0 8.84 31.03 0 0.71 4.35 5.16
18:14 1 24.9 42 64,469 0 4.42 0 9.53 34.12 0 1.43 4.36 4.36
18:12 1 24.9 42 64,354 0 0.49 0 7.02 21.27 0 2.85 5.41 5.94
18:10 1 25 42 64,280 0 8.56 0 11.79 35.98 0 2.14 4.35 6.74
18:08 1 25 42 64,347 0 9.46 0 11.91 35.34 0 2.14 5.41 5.94
18:07 1 25 42 64,378 0 10.79 0 12.31 38.12 0 1.43 4.88 5.15
18:03 1 25.1 42 64,574 0 9.89 0 12.24 36 0 2.85 5.44 5.94
17:39 1 26.1 40 64,948 0 21.73 0 13.43 46.34 0 1.43 4.49 4.94
17:38 1 26.2 39 64,967 0 22.08 0 14.53 45.78 0 1.43 5.03 5.91
17:37 1 26.3 39 65,060 0 23.78 0 18.13 43.2 0 2.14 6.11 6.71
17:36 1 26.4 39 65,145 0 22.96 0 13.64 44.76 0 1.43 4 4.4
17:35 1 26.4 38 65,258 0 22.4 0 13.07 50.21 0 2.14 5.07 5.08
17:34 1 26.5 38 65,309 0 22.5 0 14.28 46.64 0 2.14 6.15 6.71
17:33 1 26.6 38 65,345 0 21.54 0 11.28 48.66 0 1.43 5.1 5.61